| time (UTC) | temp F | wind direction | speed knots | gust knots | rain 1hr in | rain 24hr in | rain mn in | humidity % | barometer mb |
| 20260508084404 | 65 | 211 | 4.3 | 9.6 | 0.00 | 0.00 | 0.00 | 66 | 1011.0 |
| 20260508083905 | 64 | 215 | 5.2 | 10.4 | 0.00 | 0.00 | 0.00 | 65 | 1011.1 |
| 20260508083404 | 64 | 230 | 4.3 | 10.4 | 0.00 | 0.00 | 0.00 | 66 | 1011.0 |
| 20260508082904 | 64 | 223 | 2.6 | 7.0 | 0.00 | 0.00 | 0.00 | 67 | 1011.0 |
| 20260508082404 | 64 | 206 | 3.5 | 8.7 | 0.00 | 0.00 | 0.00 | 69 | 1011.1 |
| 20260508081904 | 64 | 207 | 2.6 | 8.7 | 0.00 | 0.00 | 0.00 | 69 | 1011.2 |
| 20260508081404 | 63 | 199 | 2.6 | 7.0 | 0.00 | 0.00 | 0.00 | 70 | 1011.1 |
| 20260508080904 | 63 | 193 | 3.5 | 7.0 | 0.00 | 0.00 | 0.00 | 71 | 1010.9 |
| 20260508080405 | 62 | 195 | 2.6 | 7.0 | 0.00 | 0.00 | 0.00 | 71 | 1011.0 |
| 20260508075404 | 62 | 184 | 2.6 | 6.1 | 0.00 | 0.00 | 0.00 | 73 | 1010.9 |
| 20260508074905 | 62 | 175 | 3.5 | 7.0 | 0.00 | 0.00 | 0.00 | 74 | 1010.8 |
| 20260508074404 | 62 | 168 | 2.6 | 7.0 | 0.00 | 0.00 | 0.00 | 74 | 1010.7 |
| 20260508073904 | 61 | 159 | 1.7 | 6.1 | 0.00 | 0.00 | 0.00 | 75 | 1010.6 |
| 20260508073404 | 61 | 155 | 3.5 | 7.8 | 0.00 | 0.00 | 0.00 | 76 | 1010.6 |
| 20260508072904 | 60 | 155 | 3.5 | 7.8 | 0.00 | 0.00 | 0.00 | 77 | 1010.6 |
| 20260508072404 | 60 | 158 | 4.3 | 7.8 | 0.00 | 0.00 | 0.00 | 78 | 1010.5 |
| 20260508071904 | 59 | 160 | 3.5 | 7.8 | 0.00 | 0.00 | 0.00 | 79 | 1010.5 |
| 20260508071404 | 59 | 163 | 1.7 | 7.0 | 0.00 | 0.00 | 0.00 | 80 | 1010.6 |
| 20260508065904 | 57 | 159 | 2.6 | 6.1 | 0.00 | 0.00 | 0.00 | 82 | 1010.6 |
| 20260508065403 | 57 | 155 | 1.7 | 5.2 | 0.00 | 0.00 | 0.00 | 82 | 1010.6 |
| 20260508064404 | 57 | 160 | 2.6 | 6.1 | 0.00 | 0.00 | 0.00 | 82 | 1010.5 |
| 20260508063903 | 57 | 160 | 2.6 | 6.1 | 0.00 | 0.00 | 0.00 | 82 | 1010.4 |
| 20260508062904 | 57 | 157 | 1.7 | 6.1 | 0.00 | 0.00 | 0.00 | 82 | 1010.4 |
| 20260508062403 | 57 | 159 | 2.6 | 6.1 | 0.00 | 0.00 | 0.00 | 82 | 1010.4 |
| 20260508061904 | 56 | 157 | 3.5 | 7.0 | 0.00 | 0.00 | 0.00 | 82 | 1010.4 |
| 20260508061404 | 56 | 157 | 3.5 | 7.0 | 0.00 | 0.00 | 0.00 | 82 | 1010.3 |
| 20260508060903 | 56 | 159 | 2.6 | 5.2 | 0.00 | 0.00 | 0.00 | 82 | 1010.3 |
| 20260508055904 | 56 | 159 | 2.6 | 5.2 | 0.00 | 0.00 | 0.00 | 82 | 1010.2 |
| 20260508055404 | 56 | 162 | 1.7 | 5.2 | 0.00 | 0.00 | 0.00 | 82 | 1010.3 |
| 20260508054904 | 56 | 169 | 1.7 | 5.2 | 0.00 | 0.00 | 0.00 | 82 | 1010.2 |
| 20260508054404 | 56 | 176 | 0.9 | 4.3 | 0.00 | 0.00 | 0.00 | 82 | 1010.1 |
| 20260508053904 | 56 | 165 | 1.7 | 5.2 | 0.00 | 0.00 | 0.00 | 82 | 1010.2 |
| 20260508053405 | 56 | 164 | 1.7 | 5.2 | 0.00 | 0.00 | 0.00 | 82 | 1009.9 |
| 20260508052904 | 56 | 163 | 1.7 | 7.0 | 0.00 | 0.00 | 0.00 | 82 | 1009.8 |
| 20260508052405 | 56 | 166 | 2.6 | 7.0 | 0.00 | 0.00 | 0.00 | 81 | 1009.7 |
| 20260508051903 | 57 | 164 | 2.6 | 5.2 | 0.00 | 0.00 | 0.00 | 81 | 1009.7 |
| 20260508051404 | 57 | 157 | 1.7 | 5.2 | 0.00 | 0.00 | 0.00 | 81 | 1009.7 |
| 20260508050904 | 57 | 147 | 1.7 | 5.2 | 0.00 | 0.00 | 0.00 | 81 | 1009.6 |
| 20260508045904 | 57 | 161 | 1.7 | 5.2 | 0.00 | 0.00 | 0.00 | 81 | 1009.3 |
| 20260508045403 | 57 | 165 | 1.7 | 5.2 | 0.00 | 0.00 | 0.00 | 81 | 1009.5 |
| 20260508044904 | 57 | 167 | 2.6 | 6.1 | 0.00 | 0.00 | 0.00 | 81 | 1009.5 |
| 20260508044404 | 57 | 169 | 2.6 | 7.0 | 0.00 | 0.00 | 0.00 | 81 | 1009.3 |
| 20260508043404 | 57 | 147 | 1.7 | 6.1 | 0.00 | 0.00 | 0.00 | 81 | 1009.2 |
| 20260508042904 | 57 | 143 | 1.7 | 4.3 | 0.00 | 0.00 | 0.00 | 81 | 1009.1 |
| 20260508042403 | 57 | 152 | 2.6 | 7.0 | 0.00 | 0.00 | 0.00 | 81 | 1009.0 |
| 20260508041405 | 57 | 145 | 1.7 | 5.2 | 0.00 | 0.00 | 0.00 | 80 | 1009.3 |
| 20260508040904 | 57 | 145 | 2.6 | 6.1 | 0.00 | 0.00 | 0.00 | 81 | 1009.2 |
| 20260508040404 | 57 | 153 | 2.6 | 6.1 | 0.00 | 0.00 | 0.00 | 80 | 1009.1 |
| 20260508035904 | 57 | 151 | 1.7 | 7.8 | 0.00 | 0.00 | 0.00 | 80 | 1009.4 |
| 20260508035404 | 57 | 141 | 3.5 | 7.8 | 0.00 | 0.00 | 0.00 | 80 | 1009.4 |
| 20260508034904 | 57 | 139 | 3.5 | 7.8 | 0.00 | 0.00 | 0.00 | 79 | 1009.3 |
| 20260508034403 | 58 | 141 | 2.6 | 7.0 | 0.00 | 0.00 | 0.00 | 79 | 1009.2 |
| 20260508033904 | 58 | 147 | 1.7 | 5.2 | 0.00 | 0.00 | 0.00 | 79 | 1009.3 |
| 20260508033404 | 58 | 152 | 1.7 | 4.3 | 0.00 | 0.00 | 0.00 | 78 | 1009.3 |
| 20260508032903 | 58 | 156 | 1.7 | 4.3 | 0.00 | 0.00 | 0.00 | 78 | 1009.3 |
| 20260508032405 | 58 | 157 | 1.7 | 4.3 | 0.00 | 0.00 | 0.00 | 78 | 1009.4 |
| 20260508031404 | 58 | 158 | 1.7 | 5.2 | 0.00 | 0.00 | 0.00 | 78 | 1009.6 |
| 20260508030905 | 58 | 170 | 2.6 | 5.2 | 0.00 | 0.00 | 0.00 | 78 | 1009.6 |
| 20260508030403 | 58 | 173 | 2.6 | 4.3 | 0.00 | 0.00 | 0.00 | 78 | 1009.6 |
| 20260508025403 | 58 | 160 | 1.7 | 5.2 | 0.00 | 0.00 | 0.00 | 78 | 1009.7 |
| 20260508024903 | 58 | 160 | 2.6 | 5.2 | 0.00 | 0.00 | 0.00 | 78 | 1009.8 |
| 20260508023405 | 58 | 156 | 2.6 | 5.2 | 0.00 | 0.00 | 0.00 | 78 | 1009.7 |
| 20260508022903 | 58 | 146 | 2.6 | 7.0 | 0.00 | 0.00 | 0.00 | 78 | 1009.7 |
| 20260508022405 | 58 | 148 | 2.6 | 7.0 | 0.00 | 0.00 | 0.00 | 77 | 1009.8 |
| 20260508021903 | 59 | 157 | 1.7 | 5.2 | 0.00 | 0.00 | 0.00 | 77 | 1009.7 |
| 20260508020904 | 59 | 165 | 1.7 | 4.3 | 0.00 | 0.00 | 0.00 | 77 | 1009.7 |
| 20260508020403 | 59 | 158 | 1.7 | 2.6 | 0.00 | 0.00 | 0.00 | 77 | 1009.8 |
| 20260508015909 | 59 | 161 | 0.9 | 5.2 | 0.00 | 0.00 | 0.00 | 76 | 1009.8 |
| 20260508015410 | 59 | 165 | 0.9 | 4.3 | 0.00 | 0.00 | 0.00 | 76 | 1009.8 |
| 20260508014909 | 59 | 166 | 1.7 | 4.3 | 0.00 | 0.00 | 0.00 | 76 | 1009.8 |
| 20260508014411 | 59 | 162 | 1.7 | 4.3 | 0.00 | 0.00 | 0.00 | 76 | 1009.9 |
| 20260508013909 | 59 | 154 | 1.7 | 4.3 | 0.00 | 0.00 | 0.00 | 76 | 1010.0 |
| 20260508013410 | 59 | 151 | 1.7 | 6.1 | 0.00 | 0.00 | 0.00 | 76 | 1010.0 |
| 20260508012910 | 59 | 162 | 2.6 | 6.1 | 0.00 | 0.00 | 0.00 | 76 | 1009.9 |
| 20260508011410 | 59 | 159 | 2.6 | 7.0 | 0.00 | 0.00 | 0.00 | 75 | 1010.1 |
| 20260508010909 | 59 | 157 | 1.7 | 7.0 | 0.00 | 0.00 | 0.00 | 75 | 1010.0 |
| 20260508010410 | 60 | 160 | 1.7 | 5.2 | 0.00 | 0.00 | 0.00 | 75 | 1010.1 |
| 20260508005409 | 60 | 182 | 0.9 | 4.3 | 0.00 | 0.00 | 0.00 | 75 | 1010.2 |
| 20260508004910 | 60 | 174 | 0.9 | 7.0 | 0.00 | 0.00 | 0.00 | 75 | 1010.2 |
| 20260508004409 | 60 | 169 | 2.6 | 7.0 | 0.00 | 0.00 | 0.00 | 75 | 1010.2 |
| 20260508003910 | 60 | 174 | 1.7 | 5.2 | 0.00 | 0.00 | 0.00 | 75 | 1010.3 |
| 20260508003409 | 60 | 173 | 0.9 | 5.2 | 0.00 | 0.00 | 0.00 | 75 | 1010.2 |
| 20260508002911 | 60 | 157 | 1.7 | 5.2 | 0.00 | 0.00 | 0.00 | 75 | 1010.2 |
| 20260508002409 | 60 | 163 | 1.7 | 5.2 | 0.00 | 0.00 | 0.00 | 75 | 1010.1 |
| 20260508001909 | 60 | 181 | 1.7 | 5.2 | 0.00 | 0.00 | 0.00 | 75 | 1010.1 |
| 20260508000909 | 60 | 173 | 2.6 | 5.2 | 0.00 | 0.00 | 0.00 | 75 | 1010.1 |
| 20260508000412 | 60 | 175 | 2.6 | 6.1 | 0.00 | 0.00 | 0.00 | 75 | 1010.2 |
| 20260507235910 | 60 | 181 | 1.7 | 6.1 | 0.00 | 0.00 | 0.00 | 75 | 1010.4 |
| 20260507234910 | 60 | 165 | 3.5 | 5.2 | 0.00 | 0.00 | 0.00 | 75 | 1010.4 |
| 20260507233910 | 61 | 174 | 1.7 | 5.2 | 0.00 | 0.00 | 0.00 | 74 | 1010.3 |
| 20260507233409 | 61 | 169 | 1.7 | 4.3 | 0.00 | 0.00 | 0.00 | 74 | 1010.3 |
| 20260507232909 | 61 | 167 | 1.7 | 5.2 | 0.00 | 0.00 | 0.00 | 74 | 1010.1 |
| 20260507232410 | 61 | 175 | 1.7 | 5.2 | 0.00 | 0.00 | 0.00 | 73 | 1010.2 |
| 20260507231909 | 61 | 176 | 1.7 | 5.2 | 0.00 | 0.00 | 0.00 | 73 | 1010.3 |
| 20260507231410 | 61 | 170 | 1.7 | 5.2 | 0.00 | 0.00 | 0.00 | 72 | 1010.3 |
| 20260507230910 | 61 | 166 | 0.9 | 4.3 | 0.00 | 0.00 | 0.00 | 72 | 1010.4 |
| 20260507230409 | 61 | 162 | 1.7 | 4.3 | 0.00 | 0.00 | 0.00 | 72 | 1010.5 |
| 20260507225409 | 62 | 179 | 1.7 | 6.1 | 0.00 | 0.00 | 0.00 | 71 | 1010.6 |
| 20260507224909 | 62 | 194 | 1.7 | 5.2 | 0.00 | 0.00 | 0.00 | 71 | 1010.6 |
| 20260507224410 | 62 | 219 | 1.7 | 5.2 | 0.00 | 0.00 | 0.00 | 71 | 1010.6 |
| 20260507223911 | 62 | 218 | 2.6 | 5.2 | 0.00 | 0.00 | 0.00 | 71 | 1010.8 |
| 20260507223409 | 62 | 217 | 2.6 | 5.2 | 0.00 | 0.00 | 0.00 | 71 | 1010.9 |
| 20260507222910 | 62 | 222 | 1.7 | 4.3 | 0.00 | 0.00 | 0.00 | 71 | 1010.7 |
| 20260507221909 | 62 | 205 | 1.7 | 4.3 | 0.00 | 0.00 | 0.00 | 70 | 1010.8 |
| 20260507221410 | 62 | 216 | 1.7 | 6.1 | 0.00 | 0.00 | 0.00 | 70 | 1010.8 |
| 20260507220909 | 62 | 221 | 1.7 | 6.1 | 0.00 | 0.00 | 0.00 | 70 | 1010.8 |
| 20260507220409 | 62 | 219 | 1.7 | 5.2 | 0.00 | 0.00 | 0.00 | 70 | 1010.9 |
| 20260507215910 | 62 | 226 | 2.6 | 7.0 | 0.00 | 0.00 | 0.00 | 70 | 1010.8 |
| 20260507214409 | 62 | 217 | 2.6 | 6.1 | 0.00 | 0.00 | 0.00 | 70 | 1010.9 |
| 20260507213909 | 62 | 228 | 2.6 | 5.2 | 0.00 | 0.00 | 0.00 | 70 | 1010.8 |
| 20260507213410 | 62 | 230 | 2.6 | 7.8 | 0.00 | 0.00 | 0.00 | 69 | 1010.8 |
| 20260507212909 | 62 | 230 | 3.5 | 7.8 | 0.00 | 0.00 | 0.00 | 69 | 1010.9 |
| 20260507212410 | 62 | 226 | 3.5 | 6.1 | 0.00 | 0.00 | 0.00 | 69 | 1010.9 |
| 20260507211910 | 63 | 217 | 2.6 | 6.1 | 0.00 | 0.00 | 0.00 | 68 | 1010.7 |
| 20260507211410 | 63 | 220 | 2.6 | 6.1 | 0.00 | 0.00 | 0.00 | 68 | 1010.8 |
| 20260507210909 | 63 | 225 | 3.5 | 6.1 | 0.00 | 0.00 | 0.00 | 67 | 1010.7 |
| 20260507210409 | 63 | 220 | 2.6 | 6.1 | 0.00 | 0.00 | 0.00 | 67 | 1010.7 |
| 20260507205912 | 63 | 223 | 2.6 | 7.0 | 0.00 | 0.00 | 0.00 | 66 | 1010.6 |
| 20260507205410 | 63 | 230 | 3.5 | 7.8 | 0.00 | 0.00 | 0.00 | 65 | 1010.5 |
| 20260507204910 | 63 | 230 | 3.5 | 7.8 | 0.00 | 0.00 | 0.00 | 64 | 1010.4 |
| 20260507204409 | 63 | 228 | 3.5 | 7.8 | 0.00 | 0.00 | 0.00 | 64 | 1010.4 |
| 20260507203909 | 63 | 230 | 4.3 | 7.8 | 0.00 | 0.00 | 0.00 | 63 | 1010.5 |
| 20260507203409 | 64 | 233 | 3.5 | 7.0 | 0.00 | 0.00 | 0.00 | 63 | 1010.4 |
| 20260507202910 | 64 | 237 | 3.5 | 7.0 | 0.00 | 0.00 | 0.00 | 62 | 1010.2 |
| 20260507202410 | 64 | 241 | 2.6 | 7.8 | 0.00 | 0.00 | 0.00 | 62 | 1010.2 |
| 20260507201909 | 64 | 263 | 2.6 | 7.8 | 0.00 | 0.00 | 0.00 | 63 | 1010.1 |
| 20260507201409 | 64 | 269 | 2.6 | 7.8 | 0.00 | 0.00 | 0.00 | 64 | 1010.1 |
| 20260507200409 | 64 | 271 | 3.5 | 7.0 | 0.00 | 0.00 | 0.00 | 64 | 1010.1 |
| 20260507195909 | 64 | 279 | 2.6 | 7.0 | 0.00 | 0.00 | 0.00 | 64 | 1010.1 |
| 20260507195409 | 65 | 251 | 2.6 | 7.8 | 0.00 | 0.00 | 0.00 | 64 | 1010.0 |
| 20260507194409 | 65 | 240 | 4.3 | 8.7 | 0.00 | 0.00 | 0.00 | 64 | 1009.9 |
| 20260507193909 | 65 | 237 | 5.2 | 9.6 | 0.00 | 0.00 | 0.00 | 63 | 1009.9 |
| 20260507193409 | 65 | 237 | 5.2 | 9.6 | 0.00 | 0.00 | 0.00 | 63 | 1009.8 |
| 20260507192909 | 65 | 241 | 4.3 | 9.6 | 0.00 | 0.00 | 0.00 | 62 | 1009.7 |
| 20260507192409 | 65 | 243 | 4.3 | 12.2 | 0.00 | 0.00 | 0.00 | 62 | 1009.8 |
| 20260507191411 | 66 | 235 | 7.0 | 13.0 | 0.00 | 0.00 | 0.00 | 62 | 1009.7 |
| 20260507190910 | 66 | 237 | 7.0 | 11.3 | 0.00 | 0.00 | 0.00 | 62 | 1009.6 |
| 20260507190409 | 66 | 235 | 6.1 | 13.0 | 0.00 | 0.00 | 0.00 | 61 | 1009.6 |
| 20260507185910 | 66 | 231 | 6.1 | 13.0 | 0.00 | 0.00 | 0.00 | 60 | 1009.5 |
| 20260507184909 | 67 | 237 | 7.8 | 14.8 | 0.00 | 0.00 | 0.00 | 58 | 1009.4 |
| 20260507184410 | 67 | 238 | 8.7 | 14.8 | 0.00 | 0.00 | 0.00 | 56 | 1009.3 |
| 20260507183910 | 67 | 235 | 7.8 | 14.8 | 0.00 | 0.00 | 0.00 | 56 | 1009.2 |
| 20260507183409 | 68 | 231 | 7.0 | 16.5 | 0.00 | 0.00 | 0.00 | 56 | 1009.0 |
| 20260507182910 | 68 | 234 | 7.8 | 16.5 | 0.00 | 0.00 | 0.00 | 56 | 1009.1 |
| 20260507182410 | 68 | 241 | 6.1 | 14.8 | 0.00 | 0.00 | 0.00 | 55 | 1009.0 |
| 20260507181409 | 69 | 237 | 7.0 | 14.8 | 0.00 | 0.00 | 0.00 | 54 | 1008.9 |
| 20260507180908 | 69 | 235 | 7.8 | 14.8 | 0.00 | 0.00 | 0.00 | 54 | 1008.8 |
| 20260507180409 | 69 | 236 | 7.0 | 13.0 | 0.00 | 0.00 | 0.00 | 53 | 1008.8 |
| 20260507175910 | 69 | 239 | 6.1 | 13.0 | 0.00 | 0.00 | 0.00 | 53 | 1008.8 |
| 20260507175409 | 70 | 245 | 7.0 | 16.5 | 0.00 | 0.00 | 0.00 | 53 | 1008.6 |
| 20260507174910 | 70 | 239 | 7.8 | 16.5 | 0.00 | 0.00 | 0.00 | 52 | 1008.6 |
| 20260507173909 | 70 | 238 | 7.0 | 14.8 | 0.00 | 0.00 | 0.00 | 51 | 1008.6 |
| 20260507173408 | 70 | 237 | 7.8 | 14.8 | 0.00 | 0.00 | 0.00 | 50 | 1008.7 |
| 20260507172910 | 71 | 234 | 7.0 | 13.9 | 0.00 | 0.00 | 0.00 | 50 | 1008.6 |
| 20260507171410 | 71 | 236 | 8.7 | 16.5 | 0.00 | 0.00 | 0.00 | 48 | 1008.3 |
| 20260507170908 | 71 | 242 | 7.0 | 16.5 | 0.00 | 0.00 | 0.00 | 47 | 1008.4 |
| 20260507170410 | 72 | 244 | 4.3 | 13.0 | 0.00 | 0.00 | 0.00 | 47 | 1008.3 |
| 20260507165909 | 72 | 241 | 5.2 | 13.0 | 0.00 | 0.00 | 0.00 | 46 | 1008.3 |
| 20260507165409 | 72 | 223 | 6.1 | 14.8 | 0.00 | 0.00 | 0.00 | 46 | 1008.2 |
| 20260507164909 | 72 | 218 | 7.0 | 14.8 | 0.00 | 0.00 | 0.00 | 46 | 1008.2 |
| 20260507164408 | 72 | 231 | 7.0 | 15.6 | 0.00 | 0.00 | 0.00 | 46 | 1008.2 |
| 20260507163910 | 73 | 231 | 6.1 | 15.6 | 0.00 | 0.00 | 0.00 | 45 | 1008.2 |
| 20260507162908 | 73 | 236 | 7.0 | 15.6 | 0.00 | 0.00 | 0.00 | 45 | 1008.2 |
| 20260507162409 | 72 | 234 | 7.0 | 15.6 | 0.00 | 0.00 | 0.00 | 46 | 1008.1 |
| 20260507161910 | 73 | 226 | 7.0 | 12.2 | 0.00 | 0.00 | 0.00 | 46 | 1008.1 |
| 20260507161408 | 73 | 225 | 7.0 | 13.9 | 0.00 | 0.00 | 0.00 | 45 | 1008.1 |
| 20260507160410 | 73 | 233 | 7.0 | 15.6 | 0.00 | 0.00 | 0.00 | 45 | 1008.1 |
| 20260507155909 | 73 | 232 | 7.0 | 15.6 | 0.00 | 0.00 | 0.00 | 45 | 1008.0 |
| 20260507155410 | 73 | 230 | 7.8 | 15.6 | 0.00 | 0.00 | 0.00 | 45 | 1008.0 |
| 20260507153909 | 74 | 239 | 6.1 | 11.3 | 0.00 | 0.00 | 0.00 | 43 | 1008.0 |
| 20260507153408 | 74 | 235 | 6.1 | 13.9 | 0.00 | 0.00 | 0.00 | 43 | 1008.0 |
| 20260507152909 | 74 | 236 | 6.1 | 13.9 | 0.00 | 0.00 | 0.00 | 43 | 1008.0 |
| 20260507152409 | 74 | 238 | 6.1 | 13.0 | 0.00 | 0.00 | 0.00 | 43 | 1008.1 |
| 20260507151909 | 74 | 241 | 5.2 | 11.3 | 0.00 | 0.00 | 0.00 | 43 | 1008.0 |
| 20260507151408 | 74 | 235 | 7.0 | 14.8 | 0.00 | 0.00 | 0.00 | 44 | 1008.1 |
| 20260507150909 | 73 | 229 | 7.0 | 14.8 | 0.00 | 0.00 | 0.00 | 45 | 1008.2 |
| 20260507150408 | 74 | 228 | 6.1 | 13.9 | 0.00 | 0.00 | 0.00 | 45 | 1008.2 |
| 20260507145909 | 73 | 228 | 8.7 | 18.2 | 0.00 | 0.00 | 0.00 | 46 | 1008.1 |
| 20260507144908 | 73 | 231 | 7.0 | 14.8 | 0.00 | 0.00 | 0.00 | 46 | 1008.3 |
| 20260507144409 | 74 | 236 | 7.0 | 13.9 | 0.00 | 0.00 | 0.00 | 45 | 1008.4 |
| 20260507143909 | 73 | 230 | 6.1 | 13.9 | 0.00 | 0.00 | 0.00 | 45 | 1008.3 |
| 20260507143409 | 73 | 228 | 6.1 | 13.9 | 0.00 | 0.00 | 0.00 | 47 | 1008.4 |
| 20260507142910 | 73 | 240 | 6.1 | 13.0 | 0.00 | 0.00 | 0.00 | 46 | 1008.4 |
| 20260507142408 | 73 | 235 | 7.8 | 18.2 | 0.00 | 0.00 | 0.00 | 47 | 1008.4 |
| 20260507141909 | 72 | 233 | 7.8 | 18.2 | 0.00 | 0.00 | 0.00 | 48 | 1008.3 |
| 20260507141408 | 73 | 243 | 5.2 | 11.3 | 0.00 | 0.00 | 0.00 | 47 | 1008.5 |
| 20260507140909 | 73 | 243 | 7.0 | 13.0 | 0.00 | 0.00 | 0.00 | 49 | 1008.4 |
| 20260507140408 | 72 | 231 | 8.7 | 14.8 | 0.00 | 0.00 | 0.00 | 49 | 1008.5 |
| 20260507135908 | 72 | 225 | 8.7 | 14.8 | 0.00 | 0.00 | 0.00 | 49 | 1008.6 |
| 20260507134909 | 72 | 237 | 7.0 | 17.4 | 0.00 | 0.00 | 0.00 | 51 | 1008.7 |
| 20260507134408 | 72 | 230 | 7.8 | 14.8 | 0.00 | 0.00 | 0.00 | 50 | 1008.7 |
| 20260507133909 | 72 | 222 | 7.0 | 14.8 | 0.00 | 0.00 | 0.00 | 50 | 1008.7 |
| 20260507133408 | 72 | 229 | 7.8 | 14.8 | 0.00 | 0.00 | 0.00 | 49 | 1008.8 |
| 20260507132909 | 71 | 233 | 8.7 | 14.8 | 0.00 | 0.00 | 0.00 | 50 | 1008.9 |
| 20260507132409 | 71 | 228 | 8.7 | 14.8 | 0.00 | 0.00 | 0.00 | 49 | 1009.0 |
| 20260507131909 | 71 | 229 | 9.6 | 19.1 | 0.00 | 0.00 | 0.00 | 51 | 1008.9 |
| 20260507131408 | 71 | 233 | 8.7 | 19.1 | 0.00 | 0.00 | 0.00 | 51 | 1009.0 |
| 20260507130909 | 71 | 232 | 7.0 | 16.5 | 0.00 | 0.00 | 0.00 | 50 | 1009.0 |
| 20260507130408 | 71 | 223 | 7.0 | 16.5 | 0.00 | 0.00 | 0.00 | 52 | 1009.0 |
| 20260507125909 | 71 | 206 | 6.1 | 13.9 | 0.00 | 0.00 | 0.00 | 51 | 1009.0 |
| 20260507125409 | 71 | 198 | 7.0 | 13.9 | 0.00 | 0.00 | 0.00 | 53 | 1009.1 |
| 20260507124908 | 71 | 200 | 7.0 | 13.9 | 0.00 | 0.00 | 0.00 | 52 | 1009.1 |
| 20260507124409 | 71 | 217 | 7.8 | 16.5 | 0.00 | 0.00 | 0.00 | 54 | 1009.3 |
| 20260507123908 | 70 | 227 | 7.8 | 16.5 | 0.00 | 0.00 | 0.00 | 53 | 1009.3 |
| 20260507122910 | 71 | 219 | 7.8 | 17.4 | 0.00 | 0.00 | 0.00 | 53 | 1009.4 |
| 20260507122409 | 71 | 228 | 8.7 | 16.5 | 0.00 | 0.00 | 0.00 | 53 | 1009.4 |
| 20260507121408 | 71 | 222 | 7.8 | 15.6 | 0.00 | 0.00 | 0.00 | 53 | 1009.4 |
| 20260507120910 | 72 | 207 | 7.0 | 14.8 | 0.00 | 0.00 | 0.00 | 54 | 1009.4 |
| 20260507120408 | 72 | 194 | 7.0 | 14.8 | 0.00 | 0.00 | 0.00 | 53 | 1009.4 |
| 20260507115908 | 72 | 185 | 7.0 | 14.8 | 0.00 | 0.00 | 0.00 | 53 | 1009.3 |
| 20260507115408 | 71 | 182 | 7.0 | 14.8 | 0.00 | 0.00 | 0.00 | 52 | 1009.4 |
| 20260507114908 | 71 | 193 | 7.0 | 13.9 | 0.00 | 0.00 | 0.00 | 53 | 1009.5 |
| 20260507114409 | 71 | 199 | 7.0 | 13.9 | 0.00 | 0.00 | 0.00 | 54 | 1009.4 |
| 20260507113410 | 70 | 201 | 6.1 | 13.9 | 0.00 | 0.00 | 0.00 | 56 | 1009.5 |
| 20260507112908 | 70 | 201 | 5.2 | 13.9 | 0.00 | 0.00 | 0.00 | 58 | 1009.5 |
| 20260507112408 | 69 | 195 | 5.2 | 13.9 | 0.00 | 0.00 | 0.00 | 59 | 1009.5 |
| 20260507111908 | 69 | 203 | 6.1 | 15.6 | 0.00 | 0.00 | 0.00 | 59 | 1009.6 |
| 20260507111409 | 69 | 205 | 5.2 | 15.6 | 0.00 | 0.00 | 0.00 | 59 | 1009.6 |
| 20260507105909 | 69 | 207 | 5.2 | 10.4 | 0.00 | 0.00 | 0.00 | 59 | 1009.5 |
| 20260507105408 | 69 | 208 | 5.2 | 9.6 | 0.00 | 0.00 | 0.00 | 61 | 1009.6 |
| 20260507104908 | 69 | 208 | 5.2 | 12.2 | 0.00 | 0.00 | 0.00 | 60 | 1009.6 |
| 20260507104410 | 69 | 209 | 5.2 | 12.2 | 0.00 | 0.00 | 0.00 | 59 | 1009.6 |
| 20260507103908 | 69 | 205 | 5.2 | 13.9 | 0.00 | 0.00 | 0.00 | 59 | 1009.7 |
| 20260507103410 | 69 | 193 | 4.3 | 13.9 | 0.00 | 0.00 | 0.00 | 58 | 1009.7 |
| 20260507102908 | 70 | 196 | 4.3 | 12.2 | 0.00 | 0.00 | 0.00 | 60 | 1009.8 |
| 20260507102408 | 69 | 216 | 5.2 | 12.2 | 0.00 | 0.00 | 0.00 | 62 | 1009.8 |
| 20260507101908 | 69 | 214 | 5.2 | 12.2 | 0.00 | 0.00 | 0.00 | 62 | 1009.8 |
| 20260507101409 | 69 | 201 | 4.3 | 11.3 | 0.00 | 0.00 | 0.00 | 61 | 1009.7 |
| 20260507100909 | 69 | 187 | 5.2 | 11.3 | 0.00 | 0.00 | 0.00 | 63 | 1009.9 |
| 20260507095908 | 67 | 205 | 6.1 | 13.9 | 0.00 | 0.00 | 0.00 | 66 | 1009.8 |
| 20260507094909 | 67 | 178 | 6.1 | 13.9 | 0.00 | 0.00 | 0.00 | 65 | 1009.9 |
| 20260507094408 | 67 | 177 | 6.1 | 13.9 | 0.00 | 0.00 | 0.00 | 63 | 1010.0 |
| 20260507093909 | 68 | 174 | 5.2 | 12.2 | 0.00 | 0.00 | 0.00 | 65 | 1009.8 |
| 20260507093409 | 67 | 165 | 4.3 | 11.3 | 0.00 | 0.00 | 0.00 | 66 | 1009.8 |
| 20260507092908 | 68 | 170 | 5.2 | 15.6 | 0.00 | 0.00 | 0.00 | 66 | 1010.0 |
| 20260507092408 | 67 | 166 | 7.0 | 15.6 | 0.00 | 0.00 | 0.00 | 67 | 1009.9 |
| 20260507091408 | 67 | 164 | 7.0 | 12.2 | 0.00 | 0.00 | 0.00 | 66 | 1010.0 |
| 20260507090908 | 67 | 162 | 6.1 | 12.2 | 0.00 | 0.00 | 0.00 | 68 | 1009.9 |
| 20260507085908 | 65 | 165 | 6.1 | 15.6 | 0.00 | 0.00 | 0.00 | 72 | 1009.9 |